Vilvoorde, Belgium
Current Conditions -  °F | °C
As of 12:50 PM on Thursday 30 Oct 2014 (Local Time) from EBBR Reporting Station
Clear Clear  
Wind Chill: 59°   Ceiling: Unl
Heat Index: 59°   Visibility: 6mi
Dew Point: 54°   Wind: 7mph
Humidity: 82%   Direction: 180°S
Pressure: 30.18"   Gusts: NA
Location:  50.93°N, 4.42°E
Report Text: EBBR 301150Z 18006KT 9000 NSC 15/12 Q1022 NOSIG
Loading
Personal Weather Stations






























Interactive Weather Map
Tropical Storm Tracking
New forecast layout! Learn more

10-Day Weather Forecast

Advertisements
Track Severe Weather on mobile